Regional Weather Roundup
Issued by NWS Newport/Morehead, NC

Current Version | Previous Version | Text Only | Print | Product List | Glossary On
Versions: 1 2 3 4 5 6 7 8 9 10 11 12 13 14 15 16 17 18 19 20 21 22 23 24 25 26 27 28 29 30 31 32 33 34 35 36 37 38 39 40 41 42 43 44 45 46 47 48 49 50
000
ASUS42 KMHX 171910
RWRMHX
WEATHER ROUNDUP FOR EASTERN NORTH CAROLINA
NATIONAL WEATHER SERVICE NEWPORT/MOREHEAD CITY NC
300 PM EDT WED SEP 17 2014

NOTE: "FAIR" INDICATES FEW OR NO CLOUDS BELOW 12,000 FEET
WITH NO SIGNIFICANT WEATHER AND/OR OBSTRUCTIONS TO VISIBILITY

NCZ015>017-031-032-045>047-102-103-172000-
NORTH COAST

CITY           SKY/WX    TMP DP  RH WIND       PRES   REMARKS
EDENTON        PTSUNNY   77  63  62 NE8       29.94F
ELIZABETH CITY PTSUNNY   74  61  63 NE14      29.95F
KITTY HAWK     CLOUDY    75  62  63 NE10      29.93F
MANTEO         CLOUDY    76  62  63 NE15G22   29.93F

$$

NCZ045>047-081-094-103-104-172000-
CENTRAL COAST

CITY           SKY/WX    TMP DP  RH WIND       PRES   REMARKS
FRISCO         PTSUNNY   75  67  76 NE9G18    29.91F
SWANQUARTER      N/A     77 N/A N/A NE9G15    29.88S

$$

NCZ095-097-098-100-101-172000-
SOUTHERN COAST

CITY           SKY/WX    TMP DP  RH WIND       PRES   REMARKS
BEAUFORT       MOSUNNY   78  70  76 E9        29.89F
CEDAR ISLAND     N/A     75 N/A N/A N8G16     29.94F
JACKSONVILLE   MOSUNNY   83  69  62 E10       29.87F
NEWPORT        NOT AVBL
PINEY ISLAND   MOCLDY    75  68  78 E12       29.90F
WILMINGTON     MOSUNNY   81  69  67 E8        29.87F


$$

NCZ011>013-027>030-043-044-078>080-089-090>093-098-172000-
COASTAL PLAIN

CITY           SKY/WX    TMP DP  RH WIND       PRES   REMARKS
AHOSKIE        MOSUNNY   73  62  68 NE5       29.95F
CLINTON        MOSUNNY   82  71  68 NE7       29.90F
ELIZABETHTOWN  MOSUNNY   80  67  66 CALM      29.89F
GOLDSBORO      PTSUNNY   76  71  84 NE2       29.90F
GREENVILLE     MOSUNNY   79  68  69 E8        29.95S
HAVELOCK       MOSUNNY   81  70  69 NE12      29.90F
KENANSVILLE    PTSUNNY   79  67  66 NE6       29.91S
KINSTON        LGT RAIN  77  64  65 NE8       29.92F
NEW BERN       PTSUNNY   79  68  69 E14G20    29.92F
RICHLANDS      MOSUNNY   79  70  73 E9        29.89F
ROANOKE RAPIDS NOT AVBL
ROCKY MOUNT    CLOUDY    75  65  70 NE7       29.94F
WASHINGTON     MOSUNNY   76  65  67 NE10      29.93S
WHITEVILLE     MOSUNNY   79  68  68 CALM      29.88F

$$

AMZ130-135-150-152-154-156-158-170-250-252-270-ANZ085-086-088-633-658-670-172000-
MARINE OBSERVATIONS

STATION/POSITION TIME  TEMP    WIND        PRES    WAVE   SWELL
                       AIR SEA DIR/SP/G            HT/PER HT/PER
                 (UTC) (F)     (DEG/KT/KT) (MB)    (FT/S) (FT/S)
CHESAPEAKE LIGHT 1800   70      60/ 16/ 17 1015.7
BUOY 44014       1900   73 77   40/ 14/ 17 1013.6    5/14   5/14
DUCK             1900   72 76   40/ 16/ 18 1013.2
2E DUCK          1900                        N/A     4/13   3/13
OREGON INLET     1900   74 76   30/ 14/ 19 1013.1
BUOY 44095       1900      76                N/A     5/13   3/13
20E OREGON INLET NOT AVBL
HATTERAS CG      1900   75 79   50/ 10/ 14 1013.2
DIAMOND BUOY     1900   78      50/ 12/ 16 1011.9    6/14   5/14
CAPE LOOKOUT     1800   72     100/ 14/ 16 1012.7
BEAUFORT LAB     1900   76 80  110/ 10/ 13 1011.7
30 SE NEW RIVER  1900   76 82   70/ 17/ 23 1011.7    4/14   3/14
5 SE WRIGHTSVILL 1800   76 82   80/  8/ 10   N/A
BUOY 41002       1840   76 82  220/  8/ 10 1010.4    7/14   7/14
BUOY 41004       1900   79 83   50/  6/  8 1011.4    4/15   3/15

$$



USA.gov is the U.S. government's official web portal to all federal, state and local government web resources and services.